Dewpoint
-8 -7 -8 -11 -11 -9 -8 -6 -7 -8 -9 -4 -5 -4 -4 2 2 7 11 13 13 14 14 15 15 15 15 15 16 17 15 14 11 11 13 14 16 15 14 15 15 15 16 15
-6 -8 -10 -10 -8 -9 -10 -11 -10 -10 -8 -4 -4 -5 -6 -4 0 2 8 13 14 14 14 15 15 16 16 16 16 17 15 14 12 12 11 13 16 17 17 16 14 14 13 13
-7 -8 -8 -8 -9 -11 -11 -10 -9 -7 -5 -4 -4 -3 -3 -5 -1 -0 1 11 13 13 13 15 15 16 16 16 17 17 16 14 12 14 16 16 14 13 15 15 14 15 16 15
-8 -10 -7 -7 -9 -10 -8 -7 -10 -9 -6 -4 -5 -1 0 -2 1 0 2 4 11 12 14 15 15 15 16 16 17 17 16 16 16 14 15 13 14 14 14 14 15 13 14 14
-6 -7 -7 -6 -10 -11 -8 -4 -4 -7 -5 -4 -5 -5 4 -0 -2 1 3 4 6 12 14 15 15 15 16 16 17 18 17 17 17 16 14 15 14 14 15 15 15 14 14 16
-5 -6 -7 -8 -9 -9 -9 -5 -5 -6 -5 -1 -3 -5 -2 3 4 -2 2 3 6 11 13 14 14 15 16 16 17 17 16 17 17 16 13 12 12 12 15 13 15 13 14 14
-4 -5 -6 -8 -7 -8 -7 -5 -1 1 1 4 7 1 0 -5 -3 -2 1 4 5 11 13 13 14 14 15 15 15 17 17 16 16 16 12 9 8 12 15 14 15 15 14 14
-2 -3 -7 -8 -7 -5 -4 -4 -1 4 1 5 4 7 4 -4 -4 -0 2 2 6 10 12 13 14 15 15 15 15 16 15 17 17 16 14 11 16 15 15 15 15 14 13 14
-3 -2 -7 -7 -7 -7 -4 -1 -4 -2 -2 -3 -3 2 1 2 -2 0 4 4 7 9 11 13 14 15 15 15 15 15 16 15 16 16 15 14 12 13 12 13 14 13 10 12
-3 -1 -6 -7 -8 -8 -6 -7 -2 -2 3 3 -3 6 10 9 8 5 5 5 8 9 10 12 13 15 14 14 14 14 15 15 16 16 15 15 15 14 14 15 14 11 11 13
-5 -3 -4 -5 -4 -4 -5 -4 -6 -5 -1 1 3 6 8 8 4 9 7 7 9 9 10 11 13 14 14 14 15 15 15 15 16 16 16 15 16 15 14 15 13 11 12 14
-5 -4 -1 -3 -6 -7 -7 -3 -3 -1 4 0 1 5 3 5 5 -1 5 9 9 10 10 12 14 14 14 14 15 16 15 16 16 15 16 15 15 15 14 14 13 14 14 14
-4 -3 -1 -0 -4 -7 -6 -6 -6 -2 5 6 6 14 8 7 6 2 8 10 10 11 12 13 14 14 14 15 15 15 15 15 15 15 15 15 15 14 13 13 14 14 15 13
-3 -0 -1 -1 -1 -1 -0 -4 -6 -5 0 1 -1 6 9 10 11 11 9 11 11 13 14 14 14 14 15 15 14 12 13 14 15 15 15 15 14 14 12 14 13 14 14 12
-3 2 -0 -3 -5 -4 -2 -0 0 -5 -4 -1 -2 4 9 11 12 10 11 11 11 14 14 15 15 15 15 16 12 8 14 14 14 14 15 15 15 14 13 14 12 13 12 12
-3 4 1 1 -2 -4 -5 -7 -7 -8 -6 -5 -4 0 10 9 5 7 13 11 11 13 14 15 16 16 16 14 12 14 13 14 14 15 15 15 15 14 14 13 10 11 11 9
4 3 6 4 -1 -2 -1 -5 -6 -6 -8 -6 -2 9 11 13 13 12 13 12 12 12 13 15 15 16 15 12 14 14 14 15 15 15 15 15 15 15 14 14 10 11 10 10
7 10 7 5 4 5 -1 2 -2 -1 -5 -3 -3 3 11 12 11 10 8 11 12 13 12 14 15 16 15 15 14 14 15 15 15 15 15 15 15 15 14 14 13 11 11 10
1 4 6 6 5 2 -3 5 4 2 1 -4 -1 0 10 8 13 14 13 13 12 12 12 14 14 14 14 15 15 15 15 15 15 15 15 14 15 15 15 15 14 12 11 11
-3 7 4 4 5 4 2 1 1 2 3 4 8 13 13 12 14 14 16 17 16 15 15 15 15 15 14 15 16 16 15 15 16 15 15 15 16 15 15 15 14 14 12 12
-0 3 4 3 3 2 1 -3 7 14 12 11 12 15 12 14 15 14 15 16 16 17 17 16 16 15 16 16 16 15 16 15 15 14 14 13 14 15 16 15 15 14 13 12
3 3 2 3 3 2 -4 -4 3 14 12 12 12 13 13 14 13 13 14 14 15 15 15 15 15 15 15 15 15 15 15 14 13 13 12 10 10 15 15 14 14 13 13 12
3 2 3 3 2 5 12 14 14 13 14 13 13 13 13 13 13 13 14 14 14 14 14 14 14 14 14 14 15 14 13 11 10 9 9 9 11 12 13 13 13 13 12 12
1 1 5 5 6 8 10 11 14 14 14 14 13 12 13 13 13 14 13 14 13 13 13 13 13 12 12 12 12 11 11 10 9 9 10 11 11 12 12 12 12 12 11 11
5 5 7 7 8 8 10 12 12 13 13 13 13 13 13 14 13 13 13 13 14 13 13 13 12 11 11 11 10 10 9 9 10 10 11 11 11 11 11 11 11 11 10 10
6 11 9 12 10 12 13 12 12 11 13 13 13 13 13 14 13 13 13 13 13 13 12 12 12 11 10 10 9 10 10 10 11 11 11 11 11 10 10 10 10 10 10 9
Wind_Speed
12 9 12 14 13 8 10 12 12 6 2 2 11 6 6 13 7 15 18 15 14 14 14 14 11 10 10 12 17 18 13 21 9 5 26 10 12 8 6 10 14 14 19 18
9 11 15 2 7 8 10 10 10 9 5 3 11 11 8 5 8 6 17 21 16 15 15 14 13 10 9 10 12 16 11 10 9 4 8 24 7 5 2 9 12 11 13 15
14 4 6 2 5 7 11 10 11 7 4 8 13 14 16 13 13 9 5 22 19 18 19 15 13 11 7 9 11 15 11 9 6 4 8 6 6 4 3 4 6 7 10 14
10 14 4 6 8 12 12 11 5 10 9 11 5 10 6 12 11 12 12 8 20 16 21 18 15 11 9 9 9 12 4 6 4 4 3 3 3 2 2 1 8 9 9 13
12 11 7 8 11 11 11 6 7 9 11 13 16 8 8 6 1 15 15 13 8 18 18 16 14 12 11 11 8 8 7 6 7 5 4 4 3 4 4 3 7 9 10 6
17 1 6 10 9 6 9 5 10 11 12 12 15 10 6 8 12 1 13 7 11 17 16 15 14 13 14 12 11 9 8 8 6 5 3 4 4 5 3 5 6 5 7 12
14 14 10 9 10 11 9 9 7 9 11 3 17 12 7 8 12 9 7 13 9 18 17 16 17 15 15 16 12 11 10 7 7 6 4 2 3 5 8 5 4 8 8 12
12 14 19 12 13 8 10 12 9 15 13 4 12 6 22 8 12 15 7 4 13 18 18 18 16 13 13 16 15 13 9 9 9 6 4 5 5 2 1 6 8 8 10 11
9 10 15 17 10 11 11 12 14 13 16 14 10 8 12 16 5 15 14 12 15 18 19 18 16 15 14 17 17 15 9 6 9 7 5 5 5 2 5 7 6 7 11 13
10 6 9 11 6 11 11 14 7 9 14 14 13 7 2 8 16 13 10 12 16 17 18 18 18 15 15 15 17 13 13 10 10 7 5 4 5 3 4 8 9 11 12 13
15 5 5 10 8 12 10 11 11 13 13 12 11 1 12 13 10 10 13 14 16 16 17 17 14 15 15 16 14 15 11 11 9 7 7 5 4 2 6 7 8 9 12 13
13 7 11 11 11 15 14 10 10 9 10 11 11 4 8 13 16 7 20 17 15 16 17 17 16 15 16 16 15 16 12 13 10 11 8 6 5 3 6 5 6 10 12 13
5 8 10 12 12 12 9 12 14 11 9 13 8 5 9 23 20 11 20 15 17 18 18 17 19 18 19 18 17 20 13 13 13 10 9 8 3 4 6 4 7 7 11 11
7 9 9 12 5 8 9 12 13 14 9 13 13 10 14 4 27 43 16 16 17 16 18 20 20 18 19 18 16 7 14 13 12 11 10 8 4 5 4 4 3 5 8 10
5 8 11 15 18 14 12 6 25 15 14 14 15 7 5 16 17 48 22 17 17 16 18 20 20 20 19 20 14 8 9 11 10 10 10 7 6 4 4 2 3 6 7 7
12 9 11 17 20 20 20 14 14 14 14 12 14 11 24 17 12 34 17 15 16 15 17 17 18 17 17 18 15 14 13 11 10 11 10 10 9 7 3 2 2 5 4 7
9 7 8 15 17 19 16 12 15 13 13 15 12 16 25 20 17 28 16 11 14 16 14 18 19 18 18 13 14 13 12 10 10 10 10 10 9 7 4 6 1 2 3 6
6 6 6 11 14 16 14 17 13 12 10 6 11 10 32 35 31 9 6 15 15 14 13 15 18 18 14 13 15 14 12 12 10 9 8 11 10 10 9 10 6 3 2 2
10 5 8 10 13 14 14 5 13 10 15 7 12 5 18 15 7 14 10 14 12 14 12 13 17 18 16 17 19 17 16 11 14 12 13 13 15 14 13 15 9 6 4 2
15 8 8 12 13 17 14 4 5 24 5 10 16 18 18 25 5 6 9 14 18 17 14 16 20 23 21 15 16 20 13 11 10 15 15 17 15 12 13 13 11 8 5 4
14 12 14 12 12 17 14 13 29 10 5 15 21 20 11 7 7 11 8 11 12 13 12 9 15 20 17 13 15 17 15 16 16 15 15 15 16 15 15 14 12 10 9 9
14 11 12 11 14 20 18 20 5 6 6 11 15 14 15 12 10 10 11 13 13 11 10 8 7 9 10 12 13 15 13 13 12 9 9 9 9 9 11 13 12 11 9 11
5 8 9 9 9 3 14 13 8 9 12 10 11 10 11 11 10 10 12 11 11 11 9 5 4 7 9 12 12 11 10 8 6 5 4 4 5 7 10 12 12 13 12 11
3 2 5 4 4 9 9 10 13 12 9 6 7 7 8 10 8 10 7 9 9 9 9 5 6 5 4 5 6 7 6 6 4 3 3 3 4 6 9 9 10 11 11 11
5 7 6 6 7 12 10 11 9 8 6 6 7 7 7 9 8 7 7 7 8 7 9 6 6 5 4 4 4 5 6 4 4 4 4 4 5 6 5 6 7 6 7 6
7 4 4 1 11 7 6 16 8 6 7 5 7 8 7 8 9 7 6 7 8 11 9 7 6 4 5 5 6 6 5 5 5 6 6 7 7 7 7 6 5 4 4 4
Wind_Direction
201 230 233 242 227 350 339 321 332 11 146 47 288 313 281 148 173 171 155 171 196 200 198 180 193 198 206 218 226 220 234 256 278 227 298 239 212 225 215 237 255 253 264 277
232 231 256 311 20 343 298 285 282 270 128 218 279 278 268 200 155 196 170 167 189 194 196 189 190 202 211 218 239 242 252 242 196 82 156 175 228 247 222 230 273 283 290 294
244 144 37 17 302 268 265 270 273 305 313 231 242 257 244 231 155 189 213 171 176 195 189 181 191 203 222 215 219 248 253 225 247 206 201 179 207 193 238 249 329 283 298 299
229 260 175 251 243 254 265 307 232 300 288 275 330 270 214 191 186 172 175 180 173 182 175 179 191 199 201 196 209 238 193 188 240 169 134 155 74 128 245 32 276 304 332 342
227 236 251 233 248 244 263 8 305 274 271 273 269 252 79 170 274 178 169 153 175 160 169 177 188 189 186 177 189 178 183 193 172 171 133 119 104 51 309 291 356 339 330 331
265 171 263 247 236 251 276 296 266 259 256 258 259 249 161 129 157 103 113 114 158 150 165 172 176 175 179 180 175 179 172 179 169 155 198 196 209 201 216 15 352 31 322 317
228 243 209 248 237 209 236 253 256 239 236 333 358 325 317 104 123 110 97 132 151 151 164 172 171 166 174 177 173 174 185 172 175 166 165 154 115 58 354 358 357 8 331 330
217 217 215 190 242 224 217 249 273 300 297 112 193 218 263 115 124 122 138 127 145 158 167 177 173 172 176 176 170 170 173 159 152 186 178 147 98 84 323 330 44 338 347 345
269 226 165 191 194 236 255 234 245 280 282 279 244 197 41 12 345 131 133 141 150 162 169 171 174 180 178 179 177 176 190 186 161 202 187 147 144 202 341 34 29 339 14 14
263 264 169 164 236 250 247 279 253 230 262 272 276 98 103 93 290 122 131 148 147 162 167 171 169 170 177 178 178 184 205 194 175 200 170 118 68 34 19 56 350 12 28 30
243 247 255 136 202 249 205 235 257 277 289 302 294 170 153 168 207 166 157 155 157 164 160 158 164 165 172 173 170 187 196 167 185 174 154 131 105 316 59 40 0 19 37 37
216 241 243 240 225 213 245 288 203 241 257 250 276 68 165 202 230 277 141 150 161 160 159 162 156 163 166 171 172 185 162 170 168 171 168 154 163 307 72 59 18 29 45 43
253 226 255 251 274 241 220 254 269 271 280 279 295 253 11 334 350 266 125 151 157 157 148 153 153 164 170 167 175 168 169 165 166 169 164 140 223 320 80 60 54 44 54 47
311 273 226 262 346 327 312 224 251 263 259 269 258 114 187 22 21 336 143 156 153 145 150 147 153 162 160 162 176 266 174 163 172 159 160 162 205 287 77 86 97 61 61 59
266 267 283 273 280 269 202 216 287 231 242 251 275 249 163 103 98 267 138 154 148 157 157 151 156 163 168 182 181 177 149 163 169 163 169 173 203 268 115 216 83 99 88 60
241 244 260 278 283 274 263 256 264 281 291 255 264 291 85 60 267 292 137 152 150 171 167 160 164 169 180 181 159 166 183 172 174 175 180 175 212 244 204 257 65 87 79 72
247 232 247 264 262 265 268 254 258 263 251 271 278 126 115 128 222 257 144 153 167 177 172 162 170 176 184 184 165 182 174 177 182 185 194 192 223 240 257 259 311 116 104 84
333 331 278 271 272 256 262 8 339 326 284 319 314 145 149 187 189 93 115 152 162 163 169 169 173 172 185 183 190 183 183 181 191 189 211 219 229 242 247 247 248 235 165 111
248 262 281 263 263 272 257 73 288 202 254 274 336 5 113 112 97 73 73 97 121 151 156 166 183 176 183 188 193 189 191 188 198 204 226 237 238 245 248 249 251 220 230 215
233 209 253 268 279 252 271 97 58 317 227 30 39 34 38 173 102 33 58 69 94 112 145 164 164 169 184 179 180 184 192 187 212 212 218 225 227 228 235 237 244 241 227 190
218 228 223 236 256 269 283 329 92 332 348 33 50 65 59 183 87 119 102 89 105 101 111 148 166 180 184 187 200 210 220 219 225 239 243 244 246 229 236 244 243 241 221 200
204 211 228 246 254 258 286 287 256 100 64 57 63 77 84 88 91 103 95 89 95 100 120 152 168 200 183 181 191 207 217 241 245 246 248 246 236 215 214 229 222 214 228 222
243 206 232 222 245 8 68 74 71 65 79 59 73 82 98 103 101 99 102 110 130 140 139 156 187 214 196 191 201 216 236 236 242 242 226 204 190 193 206 211 226 231 215 235
262 196 210 267 257 124 116 97 63 54 73 80 84 88 98 107 107 111 117 121 136 142 149 159 178 189 184 203 229 221 211 217 223 218 197 178 186 191 204 209 207 210 222 234
14 316 322 257 142 183 114 92 83 82 70 88 96 102 106 123 123 141 140 145 146 143 128 154 200 197 203 214 198 197 203 202 182 170 159 147 142 141 157 167 178 189 203 216
84 62 307 73 18 20 242 105 92 102 87 102 110 107 110 134 138 145 140 149 152 142 154 179 192 185 184 176 180 185 164 146 140 139 133 125 116 119 117 116 131 141 141 147
Height
1496 1497 1496 1484 1478 1479 1483 1484 1482 1475 1473 1483 1484 1479 1479 1479 1482 1485 1494 1503 1508 1513 1517 1519 1524 1525 1526 1528 1528 1525 1532 1528 1528 1543 1534 1531 1541 1543 1543 1545 1545 1542 1538 1538
1493 1497 1482 1476 1482 1486 1488 1489 1488 1476 1473 1484 1484 1482 1472 1473 1477 1482 1487 1496 1504 1509 1514 1518 1522 1524 1525 1527 1525 1524 1527 1530 1536 1539 1534 1526 1536 1542 1541 1544 1542 1540 1535 1533
1491 1481 1483 1485 1488 1493 1489 1490 1485 1483 1476 1476 1479 1484 1474 1469 1473 1479 1483 1488 1497 1503 1509 1515 1519 1523 1524 1525 1525 1524 1527 1531 1533 1535 1538 1532 1541 1542 1542 1541 1540 1535 1532 1531
1485 1480 1484 1487 1492 1488 1496 1474 1479 1484 1490 1500 1468 1500 1469 1466 1473 1475 1481 1485 1491 1499 1505 1512 1517 1520 1522 1523 1522 1522 1525 1528 1531 1534 1531 1537 1539 1542 1540 1539 1536 1534 1531 1530
1486 1483 1484 1490 1487 1481 1488 1478 1483 1484 1488 1487 1479 1485 1482 1467 1472 1470 1475 1482 1488 1495 1502 1509 1514 1517 1521 1522 1521 1521 1524 1527 1529 1528 1531 1532 1535 1536 1536 1536 1534 1533 1532 1530
1480 1478 1480 1480 1480 1481 1481 1484 1484 1483 1485 1503 1482 1482 1476 1476 1478 1471 1473 1481 1486 1493 1502 1508 1513 1516 1519 1521 1523 1523 1523 1525 1527 1529 1530 1531 1533 1534 1534 1534 1535 1534 1533 1530
1483 1481 1479 1481 1483 1480 1485 1492 1510 1510 1502 1514 1501 1484 1471 1460 1462 1468 1474 1480 1486 1492 1501 1507 1510 1514 1518 1521 1523 1524 1525 1526 1529 1530 1531 1532 1534 1535 1535 1535 1535 1534 1531 1527
1492 1495 1475 1475 1480 1482 1485 1488 1504 1523 1508 1511 1493 1518 1493 1458 1463 1470 1476 1479 1484 1491 1499 1505 1510 1514 1517 1520 1523 1526 1526 1527 1530 1532 1532 1534 1536 1538 1536 1535 1534 1532 1529 1527
1479 1477 1457 1469 1475 1479 1483 1491 1475 1492 1483 1492 1480 1479 1469 1474 1474 1471 1475 1480 1484 1490 1497 1503 1508 1512 1516 1518 1521 1524 1525 1528 1531 1533 1533 1534 1535 1536 1536 1536 1534 1532 1529 1527
1471 1487 1465 1467 1475 1475 1478 1474 1493 1487 1517 1516 1486 1502 1509 1506 1507 1473 1479 1482 1484 1489 1494 1500 1505 1510 1515 1518 1521 1525 1526 1528 1531 1533 1534 1535 1536 1537 1537 1536 1534 1531 1529 1528
1470 1479 1474 1471 1481 1481 1480 1485 1482 1481 1483 1500 1501 1495 1487 1491 1473 1475 1476 1483 1486 1489 1493 1499 1504 1510 1514 1517 1520 1523 1525 1527 1531 1533 1535 1536 1537 1537 1537 1538 1534 1532 1530 1529
1469 1476 1487 1475 1464 1463 1466 1469 1473 1494 1496 1481 1484 1499 1480 1480 1474 1471 1473 1480 1485 1489 1493 1499 1504 1509 1513 1516 1520 1522 1525 1526 1529 1533 1535 1537 1537 1537 1537 1537 1535 1533 1532 1531
1468 1479 1494 1488 1474 1461 1470 1469 1469 1469 1473 1488 1498 1510 1476 1485 1485 1476 1474 1482 1486 1489 1494 1499 1504 1508 1512 1517 1518 1512 1525 1530 1529 1531 1534 1537 1536 1537 1537 1536 1536 1534 1533 1532
1475 1474 1482 1491 1481 1473 1478 1469 1468 1470 1485 1480 1476 1486 1496 1506 1493 1487 1484 1488 1486 1490 1495 1500 1505 1509 1512 1516 1517 1508 1524 1528 1530 1531 1534 1536 1537 1537 1537 1537 1536 1534 1535 1533
1476 1486 1478 1473 1468 1465 1470 1478 1474 1468 1468 1479 1470 1473 1487 1491 1491 1500 1485 1491 1487 1493 1496 1501 1505 1508 1512 1517 1520 1522 1524 1529 1530 1532 1534 1536 1537 1537 1538 1537 1536 1535 1535 1535
1476 1488 1484 1485 1471 1465 1466 1459 1458 1459 1459 1458 1458 1463 1494 1496 1499 1497 1487 1487 1488 1497 1496 1501 1506 1509 1513 1516 1521 1524 1526 1528 1529 1532 1534 1536 1537 1537 1537 1537 1536 1535 1535 1536
1480 1483 1488 1495 1473 1469 1475 1461 1458 1456 1454 1456 1463 1474 1481 1491 1501 1482 1481 1484 1491 1496 1496 1500 1506 1510 1513 1516 1518 1523 1524 1526 1528 1532 1534 1535 1536 1538 1538 1537 1537 1537 1536 1537
1485 1485 1485 1491 1480 1500 1464 1462 1454 1457 1452 1451 1451 1461 1475 1480 1485 1483 1483 1485 1490 1492 1495 1500 1505 1509 1514 1516 1519 1522 1523 1526 1529 1531 1533 1533 1534 1536 1538 1537 1537 1538 1537 1537
1485 1490 1493 1497 1490 1474 1459 1468 1477 1470 1462 1452 1455 1457 1466 1466 1486 1488 1489 1486 1484 1487 1494 1500 1504 1508 1513 1514 1516 1518 1521 1525 1527 1530 1531 1531 1532 1534 1536 1535 1536 1537 1537 1537
1482 1485 1497 1493 1497 1497 1466 1461 1465 1463 1469 1455 1459 1463 1469 1472 1489 1495 1493 1490 1482 1487 1491 1497 1502 1505 1508 1512 1515 1516 1519 1521 1524 1524 1525 1527 1527 1530 1532 1533 1534 1536 1536 1537
1483 1485 1493 1495 1496 1479 1459 1461 1472 1511 1487 1472 1469 1473 1465 1484 1493 1492 1494 1491 1486 1491 1495 1498 1503 1503 1507 1510 1513 1514 1516 1519 1521 1522 1522 1524 1525 1528 1529 1530 1532 1533 1535 1536
1476 1485 1487 1487 1493 1495 1464 1463 1473 1478 1480 1477 1478 1483 1485 1488 1491 1494 1492 1488 1491 1495 1498 1498 1501 1505 1507 1510 1509 1514 1517 1519 1519 1520 1522 1523 1523 1526 1527 1529 1530 1531 1532 1533
1474 1468 1475 1476 1477 1469 1469 1473 1477 1477 1476 1478 1481 1485 1489 1491 1493 1493 1492 1492 1495 1497 1499 1502 1505 1507 1509 1511 1513 1515 1518 1518 1518 1519 1520 1520 1522 1523 1526 1527 1529 1530 1530 1532
1462 1465 1472 1472 1467 1469 1474 1477 1479 1480 1483 1484 1484 1485 1487 1491 1493 1494 1495 1498 1499 1501 1501 1504 1505 1507 1509 1511 1514 1515 1516 1515 1516 1517 1519 1520 1521 1523 1525 1526 1528 1529 1530 1531
1471 1469 1471 1470 1471 1478 1472 1477 1481 1486 1488 1488 1487 1488 1490 1493 1496 1497 1498 1500 1502 1502 1504 1505 1506 1507 1509 1511 1512 1514 1514 1515 1516 1518 1519 1520 1521 1523 1524 1525 1527 1528 1529 1530
1475 1486 1482 1482 1482 1479 1480 1465 1478 1485 1489 1490 1490 1490 1493 1495 1497 1499 1500 1501 1502 1503 1504 1505 1506 1507 1509 1510 1512 1513 1514 1516 1517 1519 1520 1521 1522 1523 1525 1526 1527 1528 1529 1531